Hourly Data Report for July 05, 2021

CLYDE RIVER A
NUNAVUT
Current Station Operator: NAVCAN

70°29'09.000" N
68°31'01.000" W
26.50 m
2400804
71090
YCY

Download Data

Hourly Data (July 2021)
Hourly Data Report for July 5, 2021
TIME
LST
Temp Definition
°C
Dew Point Definition
°C
Rel Hum Definition
%
Precip. Amount Definition
mm

Wind Dir Definition
10's deg

Wind Spd Definition
km/h
Visibility Definition
km
Stn Press Definition
kPa
Hmdx Definition


Wind Chill Definition


Weather Definition


00:00 -1.0 -1.1 99 0.0 10 8 0.6 100.93   -4 Freezing Fog
01:00 -1.4 -1.4 100 0.0 13 9 1.6 100.89   -5 Fog
02:00 -1.5 -1.5 100 0.0 13 9 16.1 100.87   -5 LegendNANA
03:00 -1.7 -1.8 99 0.0 12 5 16.1 100.85   -4 LegendNANA
04:00 -1.3 -1.3 100 0.0 6 8 2.8 100.84   -4 Fog
05:00 -0.7 -0.7 100 0.0 LegendMM 4 3.6 100.83   -2 Fog
06:00 0.3 -0.1 97 0.0 3 8 16.1 100.83     LegendNANA
07:00 0.7 -0.1 95 0.0 1 9 16.1 100.82     LegendNANA
08:00 1.2 -0.2 90 0.0 36 9 16.1 100.80     LegendNANA
09:00 0.3 -1.0 91 0.0 34 15 16.1 100.83     LegendNANA
10:00 0.5 -0.8 91 0.0 36 17 16.1 100.85     LegendNANA
11:00 0.8 -0.8 89 0.0 1 18 16.1 100.84     LegendNANA
12:00 1.1 -1.0 86 0.0 2 13 16.1 100.85     LegendNANA
13:00 1.1 -0.8 87 0.0 36 18 16.1 100.88     LegendNANA
14:00 0.9 -1.2 86 0.0 35 11 16.1 100.89     LegendNANA
15:00 1.1 -0.9 87 0.0 34 15 16.1 100.90     LegendNANA
16:00 1.3 -0.6 87 0.0 35 18 16.1 100.90     LegendNANA
17:00 1.5 -0.5 86 0.0 36 15 16.1 100.92     LegendNANA
18:00 1.4 -0.4 88 0.0 35 13 16.1 100.92     LegendNANA
19:00 2.6 -1.3 76 0.0 34 17 16.1 100.92     LegendNANA
20:00 2.4 -0.7 80 0.0 2 11 16.1 100.90     LegendNANA
21:00 -1.5 -1.8 98 0.0 17 8 4.0 100.91   -5 Fog
22:00 -2.4 -2.4 100 0.0 24 11 0.4 100.88   -6 Freezing Fog
23:00 -1.3 -1.4 99 0.0   0 16.1 100.85     LegendNANA

Notes on Data Quality.

Legend

  • E = Estimated
  • M = Missing
  • NA = Not Available*
  • [empty] = Indicates an unobserved value
Date modified: